Weather History for Schefferville, QC

Change the Weather History Date:

Friday, January 4, 2013

  Actual Average Record
Temperature  
Mean Temperature -23 °F -  
Max Temperature -13 °F 0 °F 33 °F (2007)
Min Temperature -33 °F -13 °F -33 °F (2013)
Degree Days  
Heating Degree Days 88    
Moisture  
Dew Point -25 °F    
Average Humidity 76    
Maximum Humidity 84    
Minimum Humidity 46    
Precipitation  
Precipitation 0.04 in - - ()
Sea Level Pressure  
Sea Level Pressure 29.54 in    
Wind  
Wind Speed 3 mph ()    
Max Wind Speed 7 mph    
Max Gust Speed -    
Visibility 6.6 miles    
Events Snow    
Averages and records for this station are not official NWS values.
T = Trace of Precipitation, MM = Missing Value Source: Averaged Metar Reports

Daily Weather History Graph

Daily Weather History Graph

Search for Another Location

Airport:

Trip Planner

Search our weather history database for the weather conditions in past years. The results will help you decide how hot, cold, wet, or windy it might be!

Date:

Astronomy

Jan. 04, 2013 Rise Set
Actual Time 7:49 AM EST 3:15 PM EST
Civil Twilight 7:05 AM EST 3:59 PM EST
Nautical Twilight 6:18 AM EST 4:46 PM EST
Astronomical Twilight 5:34 AM EST 5:30 PM EST
Moon No Moon Rise 10:14 AM EST (1/4)
Length of Visible Light 8h 54m
Length of Day
7h 25m
Waning Gibbous, 55% of the Moon is Illuminated
Jan 4
Waning Gibbous
Jan 4
Last Quarter
Jan 11
New
Jan 18
First Quarter
Jan 26
Full

Hourly Weather History & Observations

Time (EST) Temp. Windchill Dew Point Humidity Pressure Visibility Wind Dir Wind Speed Gust Speed Precip Events Conditions
12:00 AM -25.6 °F - -31.0 °F 76% 29.71 in 9.0 mi Variable 2.3 mph - N/A   Clear
1:00 AM -26 °F - -33 °F 52% 29.71 in - South 2.3 mph - -  
1:00 AM -25.6 °F - -31.0 °F 76% 29.70 in 9.0 mi Calm Calm - N/A   Clear
2:00 AM -27.4 °F - -32.8 °F 75% 29.69 in 9.0 mi Variable 2.3 mph - N/A   Partly Cloudy
3:00 AM -27.4 °F - -32.8 °F 75% 29.68 in 9.0 mi Calm Calm - N/A   Clear
4:00 AM -29.2 °F - -34.6 °F 75% 29.67 in 9.0 mi Calm Calm - N/A   Clear
5:00 AM -29.2 °F -41.2 °F -34.6 °F 75% 29.66 in 9.0 mi SSE 3.5 mph - N/A   Clear
6:00 AM -29.2 °F -41.2 °F -34.6 °F 75% 29.65 in 9.0 mi South 3.5 mph - N/A   Clear
7:00 AM -33 °F - -41 °F 46% 29.64 in - SE 2.3 mph - -  
7:00 AM -31.0 °F -48.4 °F -38.2 °F 68% 29.63 in 7.0 mi ESE 5.8 mph - N/A   Clear
7:24 AM -31.0 °F -48.4 °F -38.2 °F 68% 29.63 in 5.0 mi ESE 5.8 mph - N/A   Haze
7:46 AM -29.2 °F -44.0 °F -34.6 °F 75% 29.62 in 6.0 mi SE 4.6 mph - N/A   Haze
8:00 AM -31.0 °F -46.1 °F -36.4 °F 75% 29.61 in 8.0 mi ESE 4.6 mph - N/A   Scattered Clouds
9:00 AM -25.6 °F -37.1 °F -31.0 °F 76% 29.60 in 9.0 mi SE 3.5 mph - N/A   Partly Cloudy
10:00 AM -20 °F - -27 °F 56% 29.60 in - South 4.6 mph - -  
10:00 AM -18.4 °F -28.9 °F -23.8 °F 76% 29.59 in 9.0 mi SE 3.5 mph - N/A   Overcast
10:13 AM -16.6 °F -26.8 °F -22.0 °F 76% 29.58 in 5.0 mi SE 3.5 mph - N/A   Haze
10:22 AM -14.8 °F -24.8 °F -20.2 °F 77% 29.57 in 6.0 mi SE 3.5 mph - N/A   Haze
11:00 AM -14.8 °F -27.2 °F -18.4 °F 84% 29.56 in 9.0 mi SSE 4.6 mph - N/A   Scattered Clouds
11:53 AM -13.0 °F -25.1 °F -18.4 °F 77% 29.54 in 9.0 mi SE 4.6 mph - N/A Snow Light Snow
12:00 PM -13.0 °F -25.1 °F -16.6 °F 84% 29.54 in 6.0 mi SSE 4.6 mph - N/A Snow Light Snow
12:04 PM -13.0 °F -25.1 °F -16.6 °F 84% 29.54 in 5.0 mi SE 4.6 mph - N/A Snow Light Snow
12:37 PM -13.0 °F -22.7 °F -16.6 °F 84% 29.53 in 6.0 mi SE 3.5 mph - N/A Snow Light Snow
12:43 PM -13.0 °F -22.7 °F -16.6 °F 84% 29.52 in 5.0 mi SE 3.5 mph - N/A Snow Light Snow
12:50 PM -13.0 °F -22.7 °F -16.6 °F 84% 29.52 in 2.5 mi SSE 3.5 mph - N/A Snow Light Snow
12:55 PM -13.0 °F -25.1 °F -16.6 °F 84% 29.52 in 3.0 mi SE 4.6 mph - N/A Snow Light Snow
1:00 PM -14 °F - -19 °F 64% 29.53 in - SE 4.6 mph - -  
1:00 PM -13.0 °F -25.1 °F -16.6 °F 84% 29.52 in 4.0 mi SE 4.6 mph - N/A Snow Light Snow
1:07 PM -13.0 °F -22.7 °F -16.6 °F 84% 29.52 in 6.0 mi ESE 3.5 mph - N/A Snow Light Snow
1:25 PM -13.0 °F -25.1 °F -18.4 °F 77% 29.52 in 5.0 mi SSE 4.6 mph - N/A Snow Light Snow
1:54 PM -13.0 °F -22.7 °F -18.4 °F 77% 29.52 in 6.0 mi SSE 3.5 mph - N/A Snow Light Snow
2:00 PM -13.0 °F -25.1 °F -18.4 °F 77% 29.52 in 9.0 mi South 4.6 mph - N/A Snow Light Snow
2:20 PM -14.8 °F -24.8 °F -18.4 °F 84% 29.52 in 8.0 mi SSE 3.5 mph - N/A Snow Light Snow
2:24 PM -14.8 °F -24.8 °F -18.4 °F 84% 29.52 in 5.0 mi SSE 3.5 mph - N/A Snow Light Snow
2:30 PM -14.8 °F -24.8 °F -18.4 °F 84% 29.52 in 4.0 mi SSE 3.5 mph - N/A Snow Light Snow
2:39 PM -14.8 °F -24.8 °F -18.4 °F 84% 29.52 in 6.0 mi SE 3.5 mph - N/A Snow Light Snow
3:00 PM -14.8 °F -27.2 °F -18.4 °F 84% 29.52 in 9.0 mi SSE 4.6 mph - N/A Snow Light Snow
3:08 PM -14.8 °F -29.1 °F -18.4 °F 84% 29.52 in 5.0 mi SSE 5.8 mph - N/A Snow Light Snow
3:33 PM -14.8 °F -29.1 °F -18.4 °F 84% 29.52 in 6.0 mi South 5.8 mph - N/A Snow Light Snow
4:00 PM -16 °F - -23 °F 58% 29.52 in - South 3.5 mph - -  
4:00 PM -14.8 °F -30.8 °F -20.2 °F 77% 29.52 in 9.0 mi SSE 6.9 mph - N/A Snow Light Snow
4:42 PM -14.8 °F -24.8 °F -20.2 °F 77% 29.52 in 9.0 mi SE 3.5 mph - N/A   Overcast
4:48 PM -14.8 °F -27.2 °F -20.2 °F 77% 29.52 in 9.0 mi ESE 4.6 mph - N/A Snow Light Snow
5:00 PM -16.6 °F -26.8 °F -20.2 °F 84% 29.52 in 8.0 mi ESE 3.5 mph - N/A Snow Light Snow
5:05 PM -16.6 °F -26.8 °F -20.2 °F 84% 29.51 in 5.0 mi ESE 3.5 mph - N/A Snow Light Snow
6:00 PM -16.6 °F -26.8 °F -22.0 °F 76% 29.51 in 9.0 mi ESE 3.5 mph - N/A Snow Light Snow
6:07 PM -16.6 °F -26.8 °F -22.0 °F 76% 29.51 in 5.0 mi ESE 3.5 mph - N/A Snow Light Snow
6:28 PM -16.6 °F -26.8 °F -22.0 °F 76% 29.51 in 6.0 mi ESE 3.5 mph - N/A Snow Light Snow
7:00 PM -18 °F - -25 °F 57% 29.51 in - South 4.6 mph - -  
7:00 PM -18.4 °F -33.4 °F -22.0 °F 84% 29.51 in 9.0 mi South 5.8 mph - N/A Snow Light Snow
8:00 PM -16.6 °F -26.8 °F -22.0 °F 76% 29.51 in 6.0 mi SE 3.5 mph - N/A Snow Light Snow
8:03 PM -16.6 °F -29.3 °F -22.0 °F 76% 29.51 in 5.0 mi SE 4.6 mph - N/A Snow Light Snow
8:09 PM -18.4 °F -28.9 °F -23.8 °F 76% 29.52 in 6.0 mi ESE 3.5 mph - N/A Snow Light Snow
9:00 PM -18.4 °F -31.4 °F -22.0 °F 84% 29.50 in 9.0 mi SE 4.6 mph - N/A Snow Light Snow
9:37 PM -20.2 °F -30.9 °F -25.6 °F 76% 29.49 in 9.0 mi South 3.5 mph - N/A   Partly Cloudy
9:42 PM -20.2 °F - -25.6 °F 76% 29.49 in 9.0 mi Calm Calm - N/A Snow Light Snow
10:00 PM -22 °F - -29 °F 56% 29.49 in - South 2.3 mph - -  
10:00 PM -22.0 °F - -27.4 °F 76% 29.49 in 9.0 mi Calm Calm - N/A Snow Light Snow
10:02 PM -22.0 °F - -27.4 °F 76% 29.49 in 9.0 mi Calm Calm - N/A   Clear
10:49 PM -22.0 °F -33.0 °F -27.4 °F 76% 29.48 in 9.0 mi South 3.5 mph - N/A Snow Light Snow
10:55 PM -22.0 °F -35.6 °F -27.4 °F 76% 29.48 in 5.0 mi South 4.6 mph - N/A Snow Light Snow
11:00 PM -22.0 °F -35.6 °F -27.4 °F 76% 29.47 in 3.0 mi South 4.6 mph - N/A Snow Light Snow
11:02 PM -22.0 °F -35.6 °F -27.4 °F 76% 29.47 in 2.5 mi South 4.6 mph - N/A Snow Light Snow
11:05 PM -23.8 °F -35.0 °F -29.2 °F 76% 29.47 in 2.0 mi SSE 3.5 mph - N/A Snow Light Snow
11:07 PM -23.8 °F -35.0 °F -29.2 °F 76% 29.48 in 1.8 mi SSE 3.5 mph - N/A Snow Light Snow
11:21 PM -25.6 °F -37.1 °F -32.8 °F 69% 29.48 in 2.0 mi SSE 3.5 mph - N/A Snow Light Snow
11:24 PM -25.6 °F - -31.0 °F 76% 29.48 in 3.0 mi SSE 2.3 mph - N/A Snow Light Snow
11:27 PM -25.6 °F -37.1 °F -31.0 °F 76% 29.48 in 6.0 mi South 3.5 mph - N/A Snow Light Snow
11:28 PM -25.6 °F -37.1 °F -31.0 °F 76% 29.47 in 7.0 mi South 3.5 mph - N/A Snow Light Snow